Weather History for Beaufort, NC

Change the Weather History Date:

Sunday, February 3, 2013

  Actual Average Record
Temperature  
Mean Temperature 43 °F -  
Max Temperature 52 °F 57 °F 71 °F (1989)
Min Temperature 34 °F 37 °F 14 °F (1980)
Degree Days  
Heating Degree Days 22    
Moisture  
Dew Point 33 °F    
Average Humidity 67    
Maximum Humidity 89    
Minimum Humidity 43    
Precipitation  
Precipitation 0.00 in - - ()
Sea Level Pressure  
Sea Level Pressure 29.94 in    
Wind  
Wind Speed 9 mph (WNW)    
Max Wind Speed 17 mph    
Max Gust Speed 20 mph    
Visibility 10 miles    
Events      
Averages and records for this station are not official NWS values.
T = Trace of Precipitation, MM = Missing Value Source: NWS Daily Summary

Daily Weather History Graph

Daily Weather History Graph

Search for Another Location

Airport:

Trip Planner

Search our weather history database for the weather conditions in past years. The results will help you decide how hot, cold, wet, or windy it might be!

Date:

Astronomy

Feb. 03, 2013 Rise Set
Actual Time 7:03 AM EST 5:38 PM EST
Civil Twilight 6:36 AM EST 6:04 PM EST
Nautical Twilight 6:06 AM EST 6:34 PM EST
Astronomical Twilight 5:37 AM EST 7:04 PM EST
Moon 12:27 AM EST (2/3) 11:15 AM EST (2/3)
Length of Visible Light 11h 27m
Length of Day
10h 34m
Waning Gibbous, 49% of the Moon is Illuminated
Feb 3
Waning Gibbous
Feb 10
New
Feb 17
First Quarter
Feb 25
Full
Mar 4
Last Quarter

Hourly Weather History & Observations

Time (EST) Temp. Windchill Dew Point Humidity Pressure Visibility Wind Dir Wind Speed Gust Speed Precip Events Conditions
12:58 AM 50.0 °F - 42.1 °F 74% 30.03 in 10.0 mi West 13.8 mph - N/A   Mostly Cloudy
1:58 AM 45.0 °F 38.2 °F 37.0 °F 74% 30.01 in 10.0 mi West 15.0 mph - N/A   Mostly Cloudy
2:58 AM 42.1 °F 37.7 °F 36.0 °F 79% 29.99 in 10.0 mi West 6.9 mph - N/A   Mostly Cloudy
3:58 AM 43.0 °F 41.3 °F 35.1 °F 74% 29.96 in 10.0 mi West 3.5 mph - N/A   Scattered Clouds
5:58 AM 41.0 °F 36.4 °F 35.1 °F 79% 29.95 in 10.0 mi WNW 6.9 mph - N/A   Clear
6:58 AM 41.0 °F 37.1 °F 34.0 °F 76% 29.95 in 10.0 mi West 5.8 mph - N/A   Clear
7:58 AM 42.1 °F 39.2 °F 35.1 °F 76% 29.95 in 10.0 mi West 4.6 mph - N/A   Overcast
8:58 AM 44.1 °F 39.0 °F 36.0 °F 73% 29.96 in 10.0 mi WNW 9.2 mph - N/A   Partly Cloudy
9:58 AM 48.0 °F - 37.0 °F 66% 29.96 in 10.0 mi NW 10.4 mph - N/A   Clear
10:58 AM 48.9 °F - 33.1 °F 54% 29.94 in 10.0 mi NW 9.2 mph - N/A   Partly Cloudy
11:58 AM 48.9 °F - 33.1 °F 54% 29.92 in 10.0 mi NNW 12.7 mph - N/A   Mostly Cloudy
12:58 PM 48.0 °F - 34.0 °F 58% 29.90 in 10.0 mi NNW 10.4 mph - N/A   Overcast
1:58 PM 52.0 °F - 33.1 °F 49% 29.86 in 10.0 mi NW 8.1 mph 19.6 mph N/A   Mostly Cloudy
2:58 PM 50.0 °F - 33.1 °F 52% 29.86 in 10.0 mi WNW 10.4 mph 16.1 mph N/A   Mostly Cloudy
3:58 PM 52.0 °F - 30.9 °F 45% 29.88 in 10.0 mi West 12.7 mph - N/A   Scattered Clouds
4:58 PM 51.1 °F - 28.9 °F 43% 29.89 in 10.0 mi WNW 17.3 mph - N/A   Scattered Clouds
5:58 PM 46.0 °F 42.5 °F 30.9 °F 56% 29.90 in 10.0 mi WNW 6.9 mph - N/A   Clear
6:58 PM 43.0 °F 40.3 °F 30.9 °F 62% 29.93 in 10.0 mi WNW 4.6 mph - N/A   Clear
7:58 PM 39.9 °F - 30.9 °F 70% 29.94 in 10.0 mi Calm Calm - N/A   Clear
8:58 PM 36.0 °F - 30.0 °F 79% 29.95 in 10.0 mi Calm Calm - N/A   Clear
9:58 PM 36.0 °F - 32.0 °F 86% 29.96 in 10.0 mi Calm Calm - N/A   Clear
10:58 PM 34.0 °F - 30.9 °F 89% 29.97 in 10.0 mi Calm Calm - N/A   Partly Cloudy
11:58 PM 39.9 °F 33.9 °F 30.9 °F 70% 29.99 in 10.0 mi North 9.2 mph - N/A   Clear